Theta_e
306 305 302 297 293 295 288 286 286 288 297 306 311 311 313 313 317 318 319 321 324 324 325 327 330 333 341 342 343 346 348 348
305 304 303 297 300 293 291 285 284 289 291 293 300 305 309 313 315 318 321 323 324 327 327 326 330 330 333 338 338 341 351 350
299 296 295 295 294 295 292 290 286 285 290 299 304 308 309 313 313 320 323 327 327 328 329 328 329 327 332 333 332 335 341 352
293 299 302 297 296 293 289 287 289 288 290 306 310 311 314 313 313 318 329 324 323 325 328 330 325 328 329 332 333 336 339 347
290 295 299 297 297 295 293 290 290 287 290 307 309 311 311 311 312 318 322 324 323 321 325 328 330 330 334 335 335 336 336 347
287 292 296 295 298 298 292 287 288 290 293 300 307 308 310 313 313 315 322 323 321 320 323 323 325 327 328 332 335 333 337 344
295 298 298 298 299 299 297 295 291 295 298 303 307 310 311 315 317 319 319 320 320 322 324 323 324 326 328 329 335 330 334 334
292 297 298 296 299 303 304 306 303 303 301 310 313 314 315 316 317 319 321 323 322 325 325 324 325 328 330 331 334 333 331 331
290 293 294 290 296 303 303 306 302 297 300 308 308 313 314 314 316 318 323 324 326 327 326 329 328 328 331 331 333 332 329 330
287 288 283 292 308 308 305 306 306 305 307 311 311 314 313 314 314 318 323 325 325 327 329 330 327 328 328 330 332 333 331 329
286 285 291 302 305 304 300 300 310 308 310 311 313 313 311 315 319 322 322 323 325 326 325 323 325 326 326 326 327 328 329 330
291 288 287 296 308 313 310 296 311 310 306 306 311 301 305 313 316 317 322 323 324 323 322 320 320 322 321 321 321 321 323 325
292 290 295 304 310 313 294 295 309 307 306 307 306 308 312 316 314 318 321 324 325 322 320 318 319 318 317 316 317 319 321 322
292 290 289 308 310 301 303 305 308 309 308 308 310 314 316 316 315 319 322 325 325 321 319 319 319 318 316 317 318 319 319 320
296 295 305 305 307 308 308 308 310 310 313 313 313 316 315 317 316 318 324 324 324 321 319 320 320 319 318 318 319 319 318 317
299 303 304 307 310 312 313 312 314 315 316 317 316 317 313 315 315 317 321 322 322 320 319 318 319 319 318 318 318 317 316 315
299 302 305 307 310 313 315 316 317 318 318 317 316 316 315 315 317 317 320 321 320 319 319 318 318 317 318 317 315 314 314 315
297 302 301 302 312 313 312 313 315 315 314 315 315 315 317 314 319 319 319 320 318 317 316 316 317 318 319 318 316 314 313 312
302 311 307 312 312 315 312 315 318 317 316 315 315 316 314 316 318 317 319 319 318 315 314 310 312 316 316 318 315 312 310 310
Wind_Speed
4 2 4 5 4 5 3 3 2 3 2 6 2 1 3 7 7 9 9 8 5 7 5 11 8 12 4 10 9 13 14 12
6 5 5 4 3 5 5 3 3 5 3 5 5 2 1 6 7 9 10 8 7 5 3 7 6 7 10 6 11 8 10 13
2 2 4 5 5 4 4 4 3 1 7 4 2 3 4 7 6 8 9 7 7 8 3 3 4 3 1 5 3 7 8 13
4 3 5 1 5 5 6 7 2 3 8 4 3 1 3 7 7 7 7 6 7 7 7 5 2 5 7 5 3 6 8 11
9 7 6 4 1 3 3 3 5 3 7 3 3 5 5 7 9 7 7 7 8 8 6 4 4 4 5 3 5 6 10 10
6 6 3 3 4 2 5 3 5 7 8 5 6 7 6 7 8 9 9 9 7 8 7 6 4 1 4 4 4 7 4 3
6 7 4 5 8 4 3 7 6 7 5 5 5 8 6 6 7 9 8 6 8 7 8 7 8 6 6 5 6 3 9 10
5 6 7 6 9 6 5 3 4 4 7 3 6 6 5 6 6 7 7 5 6 6 6 8 7 8 8 7 7 4 8 11
10 5 5 7 6 5 4 4 4 5 6 5 8 6 7 6 5 7 7 6 6 2 3 5 6 5 8 9 6 6 5 9
5 2 4 7 1 3 3 6 5 6 4 7 7 6 7 5 4 10 7 6 4 4 1 3 3 6 6 6 7 9 9 9
3 4 4 2 3 2 2 6 2 4 4 6 6 4 7 4 4 8 8 3 1 5 3 4 5 5 5 7 7 9 9 9
1 2 4 3 1 3 3 6 6 6 8 8 4 2 5 3 4 7 6 2 3 5 2 6 5 5 6 5 7 7 6 6
1 2 7 4 2 6 1 8 4 5 8 4 4 6 5 7 5 3 5 2 2 5 5 3 4 4 6 4 7 4 3 3
2 1 5 4 3 5 8 3 4 5 8 8 9 7 6 7 7 6 5 3 3 4 4 4 5 4 6 6 3 4 4 5
8 7 4 3 8 7 4 5 4 4 7 8 10 9 4 3 4 3 3 4 4 4 4 4 1 4 6 3 3 4 6 6
3 5 6 6 6 6 3 6 7 9 8 4 7 8 3 3 1 2 2 1 5 4 3 4 1 4 4 3 4 6 6 6
6 7 5 6 3 2 5 5 5 5 3 4 4 5 3 4 3 1 0 3 2 4 3 4 2 2 3 3 4 5 4 4
7 7 5 6 5 2 3 1 4 1 3 2 1 3 3 2 0 2 3 2 2 2 3 2 3 4 4 5 4 4 4 4
5 0 4 3 2 2 1 2 2 4 1 3 2 1 2 2 1 1 1 3 3 1 1 2 4 4 5 4 4 4 3 4
Wind_Direction
21 18 98 320 6 200 157 0 52 285 346 318 250 344 351 314 323 315 302 312 340 327 315 307 322 329 115 143 151 162 165 182
318 36 23 104 267 7 8 4 316 307 273 241 268 239 333 318 321 312 301 318 316 335 313 296 301 329 343 91 120 128 166 183
82 86 278 4 25 20 114 125 167 288 278 249 262 263 305 292 318 305 303 319 324 310 331 269 256 211 240 309 256 150 154 184
249 277 291 165 111 112 103 299 239 173 266 274 266 313 253 289 300 291 303 307 308 300 316 341 340 235 247 244 304 297 278 182
350 356 1 90 101 137 109 75 231 176 268 215 334 332 291 285 299 300 278 280 305 317 329 327 336 311 328 329 310 248 269 234
190 219 232 297 304 311 130 147 236 225 273 267 263 270 278 281 281 290 279 287 300 303 305 311 305 306 101 346 313 305 251 295
226 240 229 245 286 283 233 233 205 286 217 264 275 279 273 264 272 271 269 260 280 309 312 325 333 337 35 10 5 343 104 97
262 258 265 269 264 257 245 262 267 282 279 235 277 274 292 293 308 316 300 252 253 283 334 313 340 338 357 4 9 310 78 96
272 252 328 308 224 189 230 205 190 241 239 323 305 294 270 290 303 299 296 280 234 314 341 338 334 322 359 8 341 33 49 64
241 99 240 248 357 110 236 258 234 271 305 298 288 283 278 263 272 288 294 289 292 171 162 38 12 21 22 10 9 19 17 33
175 192 296 296 235 163 178 284 208 262 269 268 301 308 284 232 239 277 286 281 342 71 59 64 62 57 31 40 35 41 39 40
121 182 239 243 105 89 80 282 213 222 266 270 299 322 262 262 286 287 305 269 103 89 57 74 53 56 68 47 50 40 24 36
196 224 285 239 159 115 310 243 206 217 249 247 217 212 261 305 287 271 280 194 86 96 88 75 66 68 72 59 58 33 23 47
110 214 294 210 39 169 217 263 250 249 248 268 264 260 246 276 278 306 322 135 151 106 112 97 84 79 62 52 13 24 32 28
179 223 256 229 225 242 183 231 268 242 263 247 270 276 270 271 289 309 163 156 141 154 130 89 89 81 65 4 8 26 38 21
38 267 257 261 260 246 233 228 264 267 264 249 254 275 198 177 233 289 202 118 132 136 141 97 56 72 89 50 59 72 55 37
256 282 267 271 244 250 259 288 320 317 343 316 303 295 165 179 192 163 166 108 71 124 144 147 140 84 68 66 64 62 54 34
230 238 196 248 239 277 338 285 307 339 329 23 64 248 211 175 334 80 102 125 131 92 111 57 37 35 30 30 59 64 37 19
236 79 220 301 11 69 97 288 276 50 46 357 32 235 142 114 184 209 98 247 195 139 160 92 36 32 41 31 44 40 31 354